Location: Unspecified
(0.0000°N, 0.0000°E)
Time: 09:24:39
(UTC+00:00)

Vanguard 2 Rocket - Pass Details

Date: 08 December 2017
Orbit: 553 x 3328 km, 32.9° (Epoch: 20 April)

Event Time Altitude Azimuth Distance (km) Brightness Sun altitude
Rises 00:24:23 0° 313° (NW) 7,190 - -65.9°
Reaches altitude 10° 00:31:43 10° 328° (NNW) 6,280 - -65.3°
Maximum altitude 00:44:56 20° 9° (N) 5,183 - -63.9°
Drops below altitude 10° 00:56:17 10° 51° (NE) 5,382 - -62.4°
Exits shadow 00:57:40 - 56° (NE) 5,498 10.8 -62.2°
Sets 01:01:41 0° 67° (ENE) 5,940 11.1 -61.6°
